When you browse on this site, cookies collect data to enhance your experience and personalize the content and advertising you see.
Visit our Privacy Policy to learn more. By continuing to use the site, you agree to this use of cookies and data.
  • In Czech Republic
  • List of Countries
  • For 7 days
  • Water Temperature
  • Weather Map
  • Weather Widgets
  • user-avatar
    Login

    Hourly Weather Baku

    Today, 6 April, Monday

    Time Temperature Precipitation Wind Pressure Humidity
    00:00 +12°C° 0 mm 4 mps 764 mmHg 76%
    01:00 +12°C° 0 mm 3 mps 763 mmHg 77%
    02:00 +12°C° 0 mm 2 mps 763 mmHg 79%
    03:00 +12°C° 0 mm 2 mps 763 mmHg 80%
    04:00 +12°C° 0 mm 2 mps 763 mmHg 81%
    05:00 +12°C° 0 mm 1 mps 763 mmHg 81%
    06:00 +12°C° 0 mm 1 mps 763 mmHg 81%
    07:00 +13°C° 0 mm 2 mps 763 mmHg 74%
    08:00 +13°C° 0 mm 2 mps 763 mmHg 67%
    09:00 +13°C° 0 mm 3 mps 764 mmHg 60%
    10:00 +12°C° 0 mm 7 mps 764 mmHg 59%
    11:00 +12°C° 0 mm 10 mps 764 mmHg 59%
    12:00 +12°C° 0 mm 13 mps 765 mmHg 58%
    13:00 +10°C° 0 mm 14 mps 765 mmHg 62%
    14:00 +9°C° 0 mm 15 mps 765 mmHg 65%
    15:00 +7°C° 0 mm 17 mps 766 mmHg 68%
    16:00 +7°C° 0 mm 16 mps 766 mmHg 64%
    17:00 +7°C° 0 mm 16 mps 767 mmHg 59%
    18:00 +8°C° 0 mm 15 mps 767 mmHg 54%
    19:00 +8°C° 0 mm 15 mps 768 mmHg 55%
    20:00 +8°C° 0 mm 14 mps 769 mmHg 56%
    21:00 +8°C° 0 mm 13 mps 770 mmHg 56%
    22:00 +7°C° 0 mm 13 mps 770 mmHg 54%
    23:00 +7°C° 0 mm 13 mps 771 mmHg 51%

    Tomorrow, 7 April, Tuesday

    Time Temperature Precipitation Wind Pressure Humidity
    00:00 +7°C° 0 mm 13 mps 771 mmHg 48%
    01:00 +7°C° 0 mm 13 mps 771 mmHg 49%
    02:00 +5°C° 0 mm 13 mps 771 mmHg 49%
    03:00 +5°C° 0 mm 13 mps 772 mmHg 49%
    04:00 +5°C° 0 mm 12 mps 772 mmHg 49%
    05:00 +6°C° 0 mm 11 mps 772 mmHg 50%
    06:00 +5°C° 0 mm 10 mps 773 mmHg 50%
    07:00 +5°C° 0 mm 9 mps 773 mmHg 49%
    08:00 +6°C° 0 mm 8 mps 773 mmHg 48%
    09:00 +6°C° 0 mm 7 mps 773 mmHg 47%
    10:00 +5°C° 0.2 mm 7 mps 773 mmHg 49%
    11:00 +5°C° 0.2 mm 6 mps 773 mmHg 51%
    12:00 +6°C° 0.2 mm 5 mps 773 mmHg 52%
    13:00 +5°C° 0 mm 6 mps 773 mmHg 52%
    14:00 +5°C° 0 mm 6 mps 773 mmHg 52%
    15:00 +5°C° 0 mm 6 mps 772 mmHg 51%
    16:00 +5°C° 0 mm 6 mps 773 mmHg 51%
    17:00 +5°C° 0 mm 7 mps 773 mmHg 50%
    18:00 +5°C° 0 mm 7 mps 773 mmHg 50%
    19:00 +5°C° 0 mm 8 mps 774 mmHg 49%
    20:00 +4°C° 0 mm 8 mps 774 mmHg 49%
    21:00 +3°C° 0 mm 9 mps 775 mmHg 48%
    22:00 +3°C° 0 mm 9 mps 775 mmHg 49%
    23:00 +3°C° 0 mm 9 mps 775 mmHg 49%

    Day after tomorrow, 8 April, Wednesday

    Time Temperature Precipitation Wind Pressure Humidity
    00:00 +3°C° 0 mm 9 mps 775 mmHg 50%
    01:00 +3°C° 0 mm 9 mps 775 mmHg 50%
    02:00 +3°C° 0 mm 9 mps 774 mmHg 51%
    03:00 +2°C° 0 mm 9 mps 774 mmHg 52%
    04:00 +2°C° 0 mm 8 mps 775 mmHg 51%
    05:00 +2°C° 0 mm 8 mps 775 mmHg 50%
    06:00 +4°C° 0 mm 8 mps 776 mmHg 49%
    07:00 +4°C° 0 mm 8 mps 776 mmHg 45%
    08:00 +5°C° 0 mm 8 mps 776 mmHg 40%
    09:00 +6°C° 0 mm 8 mps 776 mmHg 35%
    10:00 +6°C° 0 mm 7 mps 776 mmHg 33%
    11:00 +8°C° 0 mm 6 mps 776 mmHg 32%
    12:00 +8°C° 0 mm 4 mps 776 mmHg 30%
    13:00 +8°C° 0 mm 4 mps 775 mmHg 30%
    14:00 +9°C° 0 mm 3 mps 774 mmHg 30%
    15:00 +9°C° 0 mm 3 mps 774 mmHg 30%
    16:00 +8°C° 0 mm 4 mps 773 mmHg 33%
    17:00 +8°C° 0 mm 5 mps 773 mmHg 37%
    18:00 +7°C° 0 mm 6 mps 773 mmHg 40%
    19:00 +7°C° 0 mm 6 mps 773 mmHg 42%
    20:00 +7°C° 0 mm 6 mps 772 mmHg 44%
    21:00 +6°C° 0 mm 7 mps 772 mmHg 46%
    22:00 +5°C° 0 mm 7 mps 772 mmHg 49%
    23:00 +5°C° 0 mm 7 mps 771 mmHg 51%

    9 April, Thursday

    Time Temperature Precipitation Wind Pressure Humidity
    00:00 +5°C° 0 mm 7 mps 771 mmHg 54%
    01:00 +5°C° 0 mm 7 mps 770 mmHg 57%
    02:00 +5°C° 0 mm 8 mps 769 mmHg 60%
    03:00 +5°C° 0 mm 8 mps 769 mmHg 64%
    04:00 +5°C° 0 mm 8 mps 768 mmHg 64%
    05:00 +5°C° 0 mm 8 mps 768 mmHg 65%
    06:00 +5°C° 0 mm 9 mps 768 mmHg 65%
    07:00 +6°C° 0.1 mm 8 mps 768 mmHg 66%
    08:00 +6°C° 0.1 mm 8 mps 768 mmHg 66%
    09:00 +6°C° 0.1 mm 8 mps 768 mmHg 66%
    10:00 +7°C° 0 mm 8 mps 767 mmHg 65%
    11:00 +8°C° 0 mm 7 mps 767 mmHg 64%
    12:00 +8°C° 0 mm 7 mps 767 mmHg 63%
    13:00 +9°C° 0 mm 7 mps 766 mmHg 60%
    14:00 +9°C° 0 mm 7 mps 766 mmHg 58%
    15:00 +10°C° 0 mm 6 mps 766 mmHg 55%
    16:00 +9°C° 0 mm 6 mps 766 mmHg 56%
    17:00 +9°C° 0 mm 6 mps 766 mmHg 58%
    18:00 +9°C° 0 mm 5 mps 766 mmHg 59%
    19:00 +8°C° 0 mm 4 mps 765 mmHg 60%
    20:00 +8°C° 0 mm 4 mps 765 mmHg 61%
    21:00 +9°C° 0 mm 3 mps 765 mmHg 62%
    22:00 +9°C° 0 mm 3 mps 765 mmHg 65%
    23:00 +9°C° 0 mm 3 mps 764 mmHg 67%

    10 April, Friday

    Time Temperature Precipitation Wind Pressure Humidity
    00:00 +8°C° 0 mm 3 mps 764 mmHg 70%
    01:00 +8°C° 0 mm 2 mps 764 mmHg 71%
    02:00 +8°C° 0 mm 2 mps 763 mmHg 71%
    03:00 +9°C° 0 mm 1 mps 763 mmHg 72%
    04:00 +8°C° 0 mm 2 mps 763 mmHg 71%
    05:00 +8°C° 0 mm 2 mps 763 mmHg 70%
    06:00 +8°C° 0 mm 2 mps 763 mmHg 70%
    07:00 +9°C° 0 mm 2 mps 763 mmHg 66%
    08:00 +11°C° 0 mm 1 mps 763 mmHg 62%
    09:00 +12°C° 0 mm 1 mps 764 mmHg 58%
    10:00 +12°C° 0 mm 1 mps 763 mmHg 55%
    11:00 +13°C° 0 mm 2 mps 763 mmHg 52%
    12:00 +14°C° 0 mm 2 mps 763 mmHg 50%
    13:00 +14°C° 0 mm 2 mps 762 mmHg 49%
    14:00 +13°C° 0 mm 3 mps 762 mmHg 48%
    15:00 +13°C° 0 mm 3 mps 762 mmHg 48%
    16:00 +13°C° 0 mm 3 mps 761 mmHg 51%
    17:00 +12°C° 0 mm 3 mps 761 mmHg 55%
    18:00 +12°C° 0 mm 3 mps 761 mmHg 59%
    19:00 +11°C° 0 mm 3 mps 761 mmHg 63%
    20:00 +11°C° 0 mm 3 mps 762 mmHg 66%
    21:00 +11°C° 0 mm 3 mps 762 mmHg 70%
    22:00 +10°C° 0 mm 4 mps 762 mmHg 71%
    23:00 +10°C° 0 mm 4 mps 761 mmHg 72%

    11 April, Saturday

    Time Temperature Precipitation Wind Pressure Humidity
    00:00 +10°C° 0 mm 4 mps 761 mmHg 73%
    01:00 +10°C° 0 mm 4 mps 761 mmHg 73%
    02:00 +10°C° 0 mm 4 mps 760 mmHg 74%
    03:00 +8°C° 0 mm 4 mps 760 mmHg 74%
    04:00 +10°C° 0 mm 4 mps 760 mmHg 74%
    05:00 +10°C° 0 mm 4 mps 760 mmHg 74%
    06:00 +10°C° 0 mm 4 mps 760 mmHg 73%
    07:00 +11°C° 0 mm 4 mps 760 mmHg 68%
    08:00 +12°C° 0 mm 4 mps 761 mmHg 62%
    09:00 +13°C° 0 mm 4 mps 761 mmHg 56%
    10:00 +13°C° 0 mm 4 mps 761 mmHg 55%
    11:00 +14°C° 0 mm 4 mps 760 mmHg 53%
    12:00 +14°C° 0 mm 4 mps 760 mmHg 52%
    13:00 +14°C° 0 mm 3 mps 760 mmHg 51%
    14:00 +14°C° 0 mm 3 mps 760 mmHg 51%
    15:00 +14°C° 0 mm 3 mps 760 mmHg 51%
    16:00 +14°C° 0 mm 3 mps 760 mmHg 52%
    17:00 +15°C° 0 mm 2 mps 760 mmHg 53%
    18:00 +15°C° 0 mm 2 mps 760 mmHg 54%
    19:00 +14°C° 0 mm 2 mps 760 mmHg 56%
    20:00 +14°C° 0 mm 2 mps 761 mmHg 57%
    21:00 +14°C° 0 mm 2 mps 761 mmHg 59%
    22:00 +14°C° 0 mm 2 mps 761 mmHg 60%
    23:00 +12°C° 0 mm 3 mps 761 mmHg 62%
    Show more